GOES 1 [-] 1 08366U 75100A 08241.37735663 -.00000023 00000-0 10000-3 0 7663 2 08366 14.4321 350.1529 0004418 227.2525 132.7572 1.00303620120013 GOES 2 [-] 1 10061U 77048A 08240.77454851 -.00000192 00000-0 10000-3 0 5149 2 10061 14.5980 358.5680 0017387 239.2095 120.6640 0.99395636 58886 GOES 3 [P] 1 10953U 78062A 08241.35672805 -.00000142 00000-0 10000-3 0 2212 2 10953 14.2552 2.4108 0000440 342.3832 17.6599 1.00278525 63733 GOES 4 [-] 1 11964U 80074A 08240.54463884 -.00000081 00000-0 10000-3 0 227 2 11964 14.5544 6.1180 0034431 283.4154 76.2444 0.99232223 63114 GOES 5 [-] 1 12472U 81049A 08241.35451896 -.00000234 00000-0 10000-3 0 641 2 12472 13.3895 16.6660 0004111 171.6279 188.4322 1.00332524 57776 GOES 6 [-] 1 14050U 83041A 08240.45178334 -.00000057 00000-0 10000-3 0 645 2 14050 12.9795 21.8163 0001806 156.9698 203.0991 1.00322907150863 GOES 7 [-] 1 17561U 87022A 08239.64140203 .00000050 00000-0 10000-3 0 5783 2 17561 11.5548 40.0567 0005200 186.7974 163.6328 1.00297195 61951 GOES 8 [-] 1 23051U 94022A 08238.32589743 -.00000229 00000-0 10000-3 0 4588 2 23051 4.9943 77.8993 0007043 148.7629 211.4534 0.98907969 59793 GOES 9 [P] 1 23581U 95025A 08238.28589046 -.00000198 00000-0 10000-3 0 7253 2 23581 4.5599 74.2782 0002022 337.1047 23.0802 0.98803115 48501 GOES 10 [+] 1 24786U 97019A 08239.22256391 -.00000300 00000-0 10000-3 0 5337 2 24786 2.8882 78.3598 0001712 121.0889 155.3402 1.00282737 41541 GOES 11 [+] 1 26352U 00022A 08242.20393464 .00000068 00000-0 10000-3 0 9537 2 26352 0.3029 262.7460 0004928 306.0401 67.1586 1.00264297 30476 GOES 12 [+] 1 26871U 01031A 08242.42330292 -.00000271 00000-0 10000-3 0 6992 2 26871 0.1721 90.9098 0003859 28.2491 295.9799 1.00281962 26088 GOES 13 [S] 1 29155U 06018A 08241.40513543 -.00000109 00000-0 10000-3 0 4762 2 29155 0.3445 85.6251 0000876 96.6511 195.2731 1.00277675 8322